Location: Recife
(8.0585°S, 34.8848°W)
Time: 20:13:28
(UTC-03:00)

A-11 Canister half - Pass Details

Date: 20 April 2026
Orbit: 1515 x 1684 km, 47.2° (Epoch: 16 May)

Event Time Altitude Azimuth Distance (km) Brightness Sun altitude
Rises 23:51:33 0° 219° (SW) 4,766 - -81.2°
Reaches altitude 10° 23:54:40 10° 218° (SW) 3,758 - -80.5°
Maximum altitude 00:04:10 82° 130° (SE) 1,545 - -78.3°
Drops below altitude 10° 00:13:24 10° 43° (NE) 3,664 - -76.1°
Sets 00:16:24 0° 42° (NE) 4,642 - -75.3°
